Date String (YYYY-MM-DD hh:mm:ss) UTC,Instrument flags,Ambient pressure (hPa),Sample flow (lpm),Bypass flow (lpm),Sample temperature (°C),Ambient temperature (°C),ASC tube jacket temperature (°C),LED temperature (°C),Box temperature (°C),Sample RH (%),Span deviation,Mass concentration (μg/m³),Mass concentration (μg/m³),Mass concentration (μg/m³)
DateTimeUTC,F1_M11,P_M11,Q1_M11,Q2_M11,T1_M11,T2_M11,T3_M11,T4_M11,T5_M11,U1_M11,ZSPAN_M11,X2_M11,X0_M11,X1_M11
2023-02-07 18:00:00,,0829.8,4.99,0.00,23.9,22.7,00.0,32.7,25.6,08.5,0000.0,0002.85,0008.25,0001.89
2023-02-07 18:01:00,,0829.8,4.99,0.00,23.9,22.7,00.0,32.7,25.7,08.4,0000.0,0002.88,0007.89,0001.92
2023-02-07 18:02:00,,0829.8,5.00,0.00,23.9,22.7,00.0,32.7,25.7,08.4,0000.0,0002.93,0007.87,0001.95
2023-02-07 18:03:00,,0829.8,5.00,0.00,23.9,22.7,00.0,32.7,25.7,08.7,0000.0,0002.92,0007.87,0002.00
2023-02-07 18:04:00,,0829.8,4.99,0.00,23.9,22.7,00.0,32.7,25.7,08.6,0000.0,0003.03,0007.74,0002.06
2023-02-07 18:05:00,,0829.8,5.00,0.00,23.9,22.7,00.0,32.7,25.7,08.5,0000.0,0003.11,0007.86,0002.12
2023-02-07 18:06:00,,0829.8,4.99,0.00,23.9,22.7,00.0,32.7,25.7,08.5,0000.0,0003.20,0007.88,0002.18
2023-02-07 18:07:00,,0829.8,5.00,0.00,23.9,22.7,00.0,32.7,25.7,08.5,0000.0,0003.24,0008.75,0002.22
2023-02-07 18:08:00,,0829.8,5.02,0.00,23.9,22.7,00.0,32.7,25.7,09.0,0000.0,0003.25,0009.40,0002.27
2023-02-07 18:09:00,,0829.8,4.99,0.00,23.9,22.8,00.0,32.7,25.8,08.6,0000.0,0003.26,0010.14,0002.32
2023-02-07 18:10:00,,0829.8,5.00,0.00,23.9,22.8,00.0,32.7,25.7,08.4,0000.0,0003.29,0010.78,0002.34
2023-02-07 18:11:00,,0829.8,5.00,0.00,24.0,22.8,00.0,32.7,25.7,08.4,0000.0,0003.36,0011.54,0002.37
2023-02-07 18:12:00,,0829.8,5.00,0.00,24.0,22.8,00.0,32.7,25.8,08.4,0000.0,0003.38,0011.67,0002.40
2023-02-07 18:13:00,,0829.8,5.00,0.00,24.0,22.8,00.0,32.7,25.9,08.5,0000.0,0003.42,0011.98,0002.43
2023-02-07 18:14:00,,0829.8,4.99,0.00,24.0,22.9,00.0,32.8,25.8,08.4,0000.0,0003.46,0012.11,0002.41
2023-02-07 18:15:00,,0829.7,5.00,0.00,24.0,22.8,00.0,32.8,25.9,08.2,0000.0,0003.43,0012.05,0002.39
2023-02-07 18:16:00,,0829.7,4.99,0.00,24.0,22.8,00.0,32.8,25.9,08.4,0000.0,0003.41,0011.52,0002.37
2023-02-07 18:17:00,,0829.7,5.00,0.00,24.0,22.8,00.0,32.8,25.9,08.7,0000.0,0003.34,0010.70,0002.36
2023-02-07 18:18:00,,0829.7,4.99,0.00,24.0,22.8,00.0,32.8,25.9,08.6,0000.0,0003.29,0009.74,0002.35
2023-02-07 18:19:00,,0829.7,5.00,0.00,24.0,22.8,00.0,32.8,25.9,08.7,0000.0,0003.28,0009.10,0002.35
2023-02-07 18:20:00,,0829.6,5.00,0.00,24.0,22.8,00.0,32.8,25.9,08.3,0000.0,0003.25,0008.15,0002.33
2023-02-07 18:21:00,,0829.6,5.00,0.00,24.0,22.8,00.0,32.8,25.9,08.5,0000.0,0003.23,0007.36,0002.32
2023-02-07 18:22:00,,0829.8,5.01,0.00,24.0,22.9,00.0,32.8,25.9,08.4,0000.0,0003.19,0007.16,0002.31
2023-02-07 18:23:00,,0830.0,4.99,0.00,24.0,22.8,00.0,32.8,25.9,08.1,0000.0,0003.18,0007.72,0002.28
2023-02-07 18:24:00,,0830.0,4.98,0.00,24.1,22.8,00.0,32.8,25.9,08.2,0000.0,0003.14,0007.38,0002.23
2023-02-07 18:25:00,,0829.5,5.00,0.00,24.1,22.9,00.0,32.8,25.9,08.2,0000.0,0003.11,0008.11,0002.21
2023-02-07 18:26:00,,0829.6,5.00,0.00,24.1,22.9,00.0,32.8,25.9,08.1,0000.0,0003.10,0008.66,0002.18
2023-02-07 18:27:00,,0829.6,5.01,0.00,24.1,22.9,00.0,32.9,25.9,08.2,0000.0,0003.09,0009.03,0002.18
2023-02-07 18:28:00,,0829.6,5.00,0.00,24.1,22.8,00.0,32.9,25.9,08.2,0000.0,0003.05,0009.17,0002.15
2023-02-07 18:29:00,,0829.5,5.02,0.00,24.1,22.8,00.0,32.9,25.9,08.2,0000.0,0003.05,0009.36,0002.13
2023-02-07 18:30:00,,0829.5,4.97,0.00,24.1,22.8,00.0,32.9,25.9,08.2,0000.0,0003.10,0009.45,0002.11
2023-02-07 18:31:00,,0829.6,5.02,0.00,24.1,22.9,00.0,32.9,25.9,08.2,0000.0,0003.13,0009.56,0002.09
2023-02-07 18:32:00,,0829.6,5.00,0.00,24.1,22.9,00.0,32.9,26.0,08.5,0000.0,0003.13,0009.62,0002.10
2023-02-07 18:33:00,,0829.5,4.99,0.00,24.1,22.9,00.0,32.9,26.0,08.2,0000.0,0003.13,0009.65,0002.08
2023-02-07 18:34:00,,0829.5,5.01,0.00,24.1,22.9,00.0,32.9,26.0,08.0,0000.0,0003.09,0009.53,0002.07
2023-02-07 18:35:00,,0829.5,5.00,0.00,24.1,22.9,00.0,32.9,26.0,08.1,0000.0,0003.09,0009.60,0002.05
2023-02-07 18:36:00,,0829.5,5.00,0.00,24.1,22.9,00.0,32.9,26.0,08.2,0000.0,0003.01,0008.88,0002.02
2023-02-07 18:37:00,,0829.5,5.00,0.00,24.1,22.9,00.0,32.9,25.9,08.3,0000.0,0002.89,0008.06,0001.99
2023-02-07 18:38:00,,0829.5,5.00,0.00,24.1,22.9,00.0,32.9,26.0,08.4,0000.0,0002.81,0008.31,0001.96
2023-02-07 18:39:00,,0829.5,4.99,0.00,24.1,22.9,00.0,32.9,26.0,08.3,0000.0,0002.78,0008.39,0001.92
2023-02-07 18:40:00,,0829.5,5.00,0.00,24.1,22.9,00.0,32.9,26.0,08.1,0000.0,0002.80,0008.31,0001.89
2023-02-07 18:41:00,,0829.4,5.00,0.00,24.1,22.9,00.0,32.9,26.0,07.9,0000.0,0002.77,0008.19,0001.84
2023-02-07 18:42:00,,0829.4,5.00,0.00,24.1,22.9,00.0,32.9,26.0,07.7,0000.0,0002.70,0008.21,0001.80
2023-02-07 18:43:00,,0829.3,5.01,0.00,24.1,22.9,00.0,32.9,26.0,07.6,0000.0,0002.57,0008.13,0001.70
2023-02-07 18:44:00,,0829.3,5.00,0.00,24.2,22.9,00.0,32.9,26.0,08.2,0000.0,0002.47,0007.69,0001.65
2023-02-07 18:45:00,,0829.3,5.01,0.00,24.2,22.9,00.0,32.9,26.0,08.4,0000.0,0002.43,0006.95,0001.61
2023-02-07 18:46:00,,0829.5,5.03,0.00,24.2,22.8,00.0,32.9,26.0,07.8,0000.0,0002.32,0006.65,0001.57
2023-02-07 18:47:00,,0829.2,5.00,0.00,24.2,22.8,00.0,32.9,26.0,07.9,0000.0,0002.30,0006.83,0001.53
2023-02-07 18:48:00,,0829.3,5.02,0.00,24.1,22.8,00.0,32.9,26.0,07.9,0000.0,0002.33,0007.50,0001.49
2023-02-07 18:49:00,,0829.2,4.99,0.00,24.2,22.8,00.0,33.0,26.0,07.8,0000.0,0002.30,0006.87,0001.43
2023-02-07 18:50:00,,0829.2,5.00,0.00,24.2,22.9,00.0,33.0,26.0,08.0,0000.0,0002.29,0006.30,0001.37
2023-02-07 18:51:00,,0829.3,5.01,0.00,24.2,22.9,00.0,33.0,26.0,07.8,0000.0,0002.22,0006.27,0001.32
2023-02-07 18:52:00,,0829.2,4.99,0.00,24.2,23.0,00.0,33.0,26.1,08.0,0000.0,0002.11,0006.53,0001.28
2023-02-07 18:53:00,,0829.3,5.00,0.00,24.2,23.0,00.0,33.0,26.0,07.6,0000.0,0002.00,0006.28,0001.23
2023-02-07 18:54:00,,0829.3,5.01,0.00,24.2,23.0,00.0,33.0,26.0,07.3,0000.0,0001.93,0005.93,0001.20
2023-02-07 18:55:00,,0829.3,5.00,0.00,24.2,23.0,00.0,33.0,26.1,06.7,0000.0,0001.85,0005.75,0001.15
2023-02-07 18:56:00,,0829.3,5.01,0.00,24.2,23.0,00.0,33.0,26.1,06.6,0000.0,0001.75,0005.65,0001.08
2023-02-07 18:57:00,,0829.2,4.99,0.00,24.2,23.0,00.0,33.0,26.1,06.7,0000.0,0001.71,0005.60,0001.03
2023-02-07 18:58:00,,0829.3,4.98,0.00,24.2,23.0,00.0,33.0,26.1,06.7,0000.0,0001.67,0006.00,0000.98
2023-02-07 18:59:00,,0829.3,4.99,0.00,24.2,23.0,00.0,33.0,26.1,06.7,0000.0,0001.57,0005.37,0000.93
